EW4529 Weather Reports


Display with metric or nautical units.
time (UTC)temp
F
wind
direction
speed
MPH
gust
MPH
rain 1hr
in
rain 24hr
in
rain mn
in
humidity
%
barometer
mb
20260905195314 81 347 0.0 4.0 0.00 0.00 0.00 50 1010.6
20260905194310 83 147 0.0 3.0 0.00 0.00 0.00 51 1010.6
20260905193350 82 155 0.0 2.0 0.00 0.00 0.00 54 1010.7
20260905192324 80 42 0.0 3.0 0.00 0.00 0.00 58 1010.8
20260905191343 81 147 0.0 2.0 0.00 0.00 0.00 54 1010.8
20260905190342 82 14 1.0 6.0 0.00 0.00 0.00 51 1010.8
20260905185309 82 34 1.0 5.0 0.00 0.00 0.00 52 1010.8
20260905184333 82 293 0.0 4.0 0.00 0.00 0.00 54 1010.8
20260905183325 83 175 0.0 4.0 0.00 0.00 0.00 49 1010.8
20260905182320 84 32 1.0 7.0 0.00 0.00 0.00 50 1010.9
20260905181338 84 243 0.0 2.0 0.00 0.00 0.00 52 1011.0
20260905180314 82 337 0.0 5.0 0.00 0.00 0.00 51 1011.0
20260905175329 82 7 1.0 8.0 0.00 0.00 0.00 47 1011.1
20260905174319 83 345 3.0 7.0 0.00 0.00 0.00 46 1011.2
20260905173321 83 52 1.0 5.0 0.00 0.00 0.00 47 1011.2
20260905172309 83 352 1.0 4.0 0.00 0.00 0.00 50 1011.2
20260905171333 82 335 1.0 4.0 0.00 0.00 0.00 51 1011.3
20260905170323 82 323 0.0 4.0 0.00 0.00 0.00 53 1011.4
20260905165317 81 222 0.0 3.0 0.00 0.00 0.00 59 1011.4
20260905164313 81 347 0.0 5.0 0.00 0.00 0.00 54 1011.6
20260905163328 81 316 2.0 6.0 0.00 0.00 0.00 52 1011.6
20260905162325 80 288 1.0 8.0 0.00 0.00 0.00 55 1011.8
20260905161348 81 283 2.0 6.0 0.00 0.00 0.00 53 1011.9
20260905160344 82 338 1.0 5.0 0.00 0.00 0.00 53 1011.9
20260905155325 83 306 0.0 6.0 0.00 0.00 0.00 51 1011.8
20260905154323 82 330 0.0 4.0 0.00 0.00 0.00 55 1011.8
20260905153314 79 259 2.0 7.0 0.00 0.00 0.00 58 1011.8
20260905152316 79 333 1.0 7.0 0.00 0.00 0.00 58 1011.8
20260905151313 79 291 2.0 5.0 0.00 0.00 0.00 59 1012.0
20260905150331 79 250 0.0 5.0 0.00 0.00 0.00 62 1011.9
20260905145329 78 257 1.0 6.0 0.00 0.00 0.00 61 1011.8
20260905144331 78 342 2.0 6.0 0.00 0.00 0.00 64 1011.7
20260905143321 77 332 0.0 2.0 0.00 0.00 0.00 66 1011.6
20260905142323 76 10 1.0 8.0 0.00 0.00 0.00 66 1011.7
20260905141322 76 163 0.0 8.0 0.00 0.00 0.00 67 1011.7
20260905140319 76 340 2.0 5.0 0.00 0.00 0.00 69 1011.7
20260905135319 75 331 1.0 4.0 0.00 0.00 0.00 72 1011.5
20260905134322 74 352 0.0 5.0 0.00 0.00 0.00 73 1011.7
20260905133339 74 14 0.0 3.0 0.00 0.00 0.00 74 1011.4
20260905132321 74 356 0.0 3.0 0.00 0.00 0.00 75 1011.4
20260905131324 73 6 0.0 2.0 0.00 0.00 0.00 77 1011.5
20260905130345 73 5 1.0 4.0 0.00 0.00 0.00 77 1011.5
20260905125312 72 3 1.0 2.0 0.00 0.00 0.00 78 1011.5
20260905124336 72 4 1.0 3.0 0.00 0.00 0.00 80 1011.7
20260905123346 72 8 1.0 3.0 0.00 0.00 0.00 82 1011.8
20260905122321 72 58 0.0 3.0 0.00 0.00 0.00 82 1011.8
20260905121317 72 11 1.0 3.0 0.00 0.00 0.00 80 1011.7
20260905120338 71 328 0.0 2.0 0.00 0.00 0.00 80 1011.9
20260905115334 71 7 0.0 3.0 0.00 0.00 0.00 81 1011.8
20260905114326 71 15 0.0 2.0 0.00 0.00 0.00 83 1011.7
20260905113337 71 8 0.0 0.0 0.00 0.00 0.00 84 1011.6
20260905112313 71 15 0.0 2.0 0.00 0.00 0.00 84 1011.4
20260905111335 71 143 0.0 0.0 0.00 0.00 0.00 85 1011.4
20260905110345 71 143 0.0 0.0 0.00 0.00 0.00 86 1011.3
20260905105320 71 143 0.0 0.0 0.00 0.00 0.00 86 1011.1
20260905104317 71 143 0.0 0.0 0.00 0.00 0.00 85 1011.0
20260905103314 71 143 0.0 0.0 0.00 0.00 0.00 83 1010.8
20260905102336 71 143 0.0 0.0 0.00 0.00 0.00 82 1010.8
20260905101332 71 143 0.0 0.0 0.00 0.00 0.00 81 1010.8
20260905100330 71 143 0.0 0.0 0.00 0.00 0.00 80 1010.7
20260905095349 72 143 0.0 0.0 0.00 0.00 0.00 81 1010.7
20260905094320 72 143 0.0 0.0 0.00 0.00 0.00 80 1010.6
20260905093316 72 143 0.0 0.0 0.00 0.00 0.00 80 1010.7
20260905092333 72 147 0.0 0.0 0.00 0.00 0.00 80 1010.6
20260905091311 72 147 0.0 0.0 0.00 0.00 0.00 80 1010.7
20260905090320 72 149 0.0 0.0 0.00 0.00 0.00 81 1010.7
20260905085344 72 355 0.0 1.0 0.00 0.00 0.00 81 1010.6
20260905084313 72 354 0.0 0.0 0.00 0.00 0.00 81 1010.6
20260905083333 72 5 0.0 1.0 0.00 0.00 0.00 81 1010.6
20260905082327 72 5 0.0 0.0 0.00 0.00 0.00 81 1010.5
20260905081349 72 5 0.0 0.0 0.00 0.00 0.00 82 1010.6
20260905080317 72 5 1.0 2.0 0.00 0.00 0.00 82 1010.7
20260905075313 72 8 0.0 3.0 0.00 0.00 0.00 83 1010.6
20260905074328 72 315 0.0 0.0 0.00 0.00 0.00 86 1010.6
20260905073318 72 314 0.0 0.0 0.00 0.00 0.00 85 1010.5
20260905072316 72 314 0.0 0.0 0.00 0.00 0.00 84 1010.6
20260905071314 72 314 0.0 0.0 0.00 0.00 0.00 85 1010.6
20260905070323 72 314 0.0 0.0 0.00 0.00 0.00 89 1010.7
20260905065320 72 314 0.0 0.0 0.00 0.00 0.00 90 1010.8
20260905064316 72 314 0.0 0.0 0.00 0.00 0.00 90 1010.8
20260905063332 72 314 0.0 0.0 0.00 0.00 0.00 90 1010.8
20260905062325 72 314 0.0 0.0 0.00 0.00 0.00 89 1010.9
20260905061318 72 314 0.0 0.0 0.00 0.00 0.00 88 1011.0
20260905060314 72 314 0.0 0.0 0.00 0.00 0.00 88 1011.1
20260905055311 72 313 0.0 0.0 0.00 0.00 0.00 88 1011.0
20260905054327 73 314 0.0 0.0 0.00 0.00 0.00 87 1011.1
20260905053315 73 314 0.0 0.0 0.00 0.00 0.00 86 1011.0
20260905052312 74 314 0.0 0.0 0.00 0.00 0.00 84 1011.1
20260905051328 75 314 0.0 0.0 0.00 0.00 0.00 83 1011.2
20260905050319 75 314 0.0 0.0 0.00 0.00 0.00 83 1011.2
20260905045316 76 309 0.0 0.0 0.00 0.00 0.00 82 1011.2
20260905044314 76 309 0.0 1.0 0.00 0.00 0.00 81 1011.4
20260905043355 76 147 0.0 1.0 0.00 0.00 0.00 80 1011.8
20260905042330 76 256 0.0 1.0 0.00 0.00 0.00 80 1011.7
20260905041320 76 33 0.0 0.0 0.00 0.00 0.00 79 1011.5
20260905040316 76 34 0.0 0.0 0.00 0.00 0.00 78 1011.4
20260905035311 77 34 0.0 0.0 0.00 0.00 0.00 78 1011.4
20260905034346 77 34 0.0 0.0 0.00 0.00 0.00 79 1011.4
20260905033315 77 34 0.0 0.0 0.00 0.00 0.00 80 1011.4
20260905032339 77 34 0.0 0.0 0.00 0.00 0.00 81 1011.3
20260905031335 77 34 0.0 0.0 0.00 0.00 0.00 81 1011.3
20260905030326 77 34 0.0 0.0 0.00 0.00 0.00 81 1011.3
20260905025322 77 34 0.0 0.0 0.00 0.00 0.00 81 1011.4
20260905024325 77 34 0.0 0.0 0.00 0.00 0.00 82 1011.3
20260905023317 77 35 0.0 0.0 0.00 0.00 0.00 82 1011.3
20260905022314 77 34 0.0 0.0 0.00 0.00 0.00 82 1011.3
20260905021311 77 34 0.0 0.0 0.00 0.00 0.00 82 1011.3
20260905020322 77 36 0.0 0.0 0.00 0.00 0.00 83 1011.3
20260905015319 77 35 0.0 0.0 0.00 0.00 0.00 84 1011.3
20260905014316 77 36 0.0 0.0 0.00 0.00 0.00 83 1011.3
20260905013317 77 36 0.0 0.0 0.00 0.00 0.00 82 1011.2
20260905012330 77 36 0.0 0.0 0.00 0.00 0.00 82 1011.4
20260905011320 77 36 0.0 0.0 0.00 0.00 0.00 82 1011.4
20260905010337 77 36 0.0 0.0 0.00 0.00 0.00 82 1011.4
20260905005312 77 36 0.0 0.0 0.00 0.00 0.00 82 1011.4
20260905004326 78 36 0.0 0.0 0.00 0.00 0.00 82 1011.4
20260905003324 78 36 0.0 0.0 0.00 0.00 0.00 82 1011.3
20260905002319 78 35 0.0 0.0 0.00 0.00 0.00 81 1011.1
20260905001340 78 36 0.0 0.0 0.00 0.00 0.00 80 1011.1
20260905000310 79 36 0.0 0.0 0.00 0.00 0.00 79 1011.1
20260904235327 79 36 0.0 0.0 0.00 0.00 0.00 78 1010.9
20260904234352 79 35 0.0 0.0 0.00 0.00 0.00 77 1010.8
20260904233320 80 36 0.0 0.0 0.00 0.00 0.00 75 1010.9
20260904232320 80 36 0.0 0.0 0.00 0.00 0.00 74 1010.9
20260904231317 81 36 0.0 0.0 0.00 0.00 0.00 73 1011.0
20260904230309 82 36 0.0 0.0 0.00 0.00 0.00 72 1010.9
20260904225324 82 36 0.0 0.0 0.00 0.00 0.00 70 1011.1
20260904224317 83 33 0.0 1.0 0.00 0.00 0.00 68 1011.0
20260904223335 83 20 0.0 1.0 0.00 0.00 0.00 67 1011.1
20260904222332 84 6 0.0 1.0 0.00 0.00 0.00 67 1011.3
20260904221326 84 150 0.0 0.0 0.00 0.00 0.00 67 1011.2
20260904220319 85 219 0.0 1.0 0.00 0.00 0.00 66 1011.2
20260904215338 85 147 0.0 2.0 0.00 0.00 0.00 65 1011.2
20260904214312 85 238 0.0 1.0 0.00 0.00 0.00 63 1011.3
20260904213310 85 338 0.0 4.0 0.00 0.00 0.00 63 1011.4
20260904212330 86 21 0.0 6.0 0.00 0.00 0.00 62 1011.5
20260904211322 87 18 1.0 7.0 0.00 0.00 0.00 58 1011.3
20260904210341 88 158 0.0 4.0 0.00 0.00 0.00 57 1011.1
20260904205335 89 4 0.0 7.0 0.00 0.00 0.00 55 1011.0
20260904204329 90 233 2.0 5.0 0.00 0.00 0.00 53 1011.0
20260904202331 90 360 0.0 4.0 0.00 0.00 0.00 57 1011.1
20260904201319 90 21 1.0 2.0 0.00 0.00 0.00 56 1011.2
20260904200337 89 342 0.0 8.0 0.00 0.00 0.00 60 1011.5